Location: Toronto
(43.6672°N, 79.4170°W)
Time: 04:56:49
(UTC-04:00)

ISS - All Passes

Search period start: 22 April 2018 00:00
Search period end: 02 May 2018 00:00
Orbit: 403 x 406 km, 51.6° (Epoch: 22 April)

Date Brightness Start Highest point End Pass type
(mag) Time Alt. Az. Time Alt. Az. Time Alt. Az.
22 Apr - 08:32:45 10° SSE 08:33:42 11° SE 08:34:40 10° ESE daylight
22 Apr - 10:06:25 10° SW 10:09:41 84° SSE 10:12:58 10° ENE daylight
22 Apr - 11:43:40 10° WNW 11:46:28 25° NNW 11:49:17 10° NE daylight
22 Apr - 13:21:09 10° NW 13:23:42 20° N 13:26:16 10° ENE daylight
22 Apr - 14:57:33 10° NW 15:00:44 46° NNE 15:03:55 10° E daylight
22 Apr - 16:34:17 10° WNW 16:37:06 26° SW 16:39:53 10° SSE daylight
23 Apr - 09:14:21 10° SW 09:17:29 45° SE 09:20:39 10° ENE daylight
23 Apr - 10:51:02 10° W 10:54:03 33° NNW 10:57:05 10° NE daylight
23 Apr - 12:28:42 10° NW 12:31:13 20° N 12:33:43 10° NE daylight
23 Apr - 14:05:22 10° NW 14:08:23 32° NNE 14:11:23 10° E daylight
23 Apr - 15:41:47 10° WNW 15:44:58 48° SW 15:48:08 10° SE daylight
24 Apr - 08:22:38 10° SSW 08:25:21 25° SE 08:28:06 10° E daylight
24 Apr - 09:58:30 10° WSW 10:01:41 48° NNW 10:04:53 10° NE daylight
24 Apr - 11:36:09 10° WNW 11:38:42 21° N 11:41:17 10° NE daylight
24 Apr - 13:13:09 10° NW 13:15:57 25° NNE 13:18:43 10° ENE daylight
24 Apr - 14:49:27 10° WNW 14:52:45 88° SSW 14:56:01 10° SE daylight
24 Apr - 16:27:29 10° WSW 16:28:45 12° SW 16:30:01 10° SSW daylight
25 Apr - 07:31:33 10° SSE 07:33:18 14° SE 07:35:03 10° E daylight
25 Apr - 09:06:06 10° WSW 09:09:22 80° NNW 09:12:39 10° ENE daylight
25 Apr - 10:43:29 10° WNW 10:46:13 24° NNW 10:48:57 10° NE daylight
25 Apr - 12:20:51 10° NW 12:23:27 21° N 12:26:04 10° ENE daylight
25 Apr - 13:57:12 10° NW 14:00:27 54° NNE 14:03:40 10° ESE daylight
25 Apr - 15:34:07 10° W 15:36:42 21° SW 15:39:16 10° S daylight
26 Apr - 08:13:54 10° SW 08:17:06 56° SE 08:20:20 10° ENE daylight
26 Apr - 09:50:48 10° W 09:53:45 29° NNW 09:56:41 10° NE daylight
26 Apr - 11:28:26 10° NW 11:30:56 20° N 11:33:26 10° NE daylight
26 Apr - 13:04:59 10° NW 13:08:03 36° NNE 13:11:08 10° E daylight
26 Apr - 14:41:28 10° WNW 14:44:34 38° SW 14:47:38 10° SSE daylight
27 Apr - 07:22:00 10° SSW 07:24:55 30° SE 07:27:50 10° ENE daylight
27 Apr - 08:58:11 10° W 09:01:19 41° NNW 09:04:27 10° NE daylight
27 Apr - 10:35:52 10° NW 10:38:23 20° N 10:40:56 10° NE daylight
27 Apr - 12:12:45 10° NW 12:15:37 27° NNE 12:18:28 10° ENE daylight
27 Apr - 13:49:03 10° WNW 13:52:20 72° SW 13:55:36 10° SE daylight
28 Apr - 06:30:35 10° S 06:32:47 17° SE 06:34:59 10° E daylight
28 Apr - 08:05:41 10° WSW 08:08:56 66° NNW 08:12:12 10° NE daylight
28 Apr - 09:43:12 10° WNW 09:45:51 22° N 09:48:31 10° NE daylight
28 Apr - 11:20:26 10° NW 11:23:06 22° N 11:25:45 10° ENE daylight
28 Apr - 12:56:45 10° NW 13:00:01 65° NNE 13:03:17 10° ESE daylight
28 Apr - 14:33:56 10° W 14:36:11 17° SW 14:38:26 10° S daylight
29 Apr - 07:13:22 10° SW 07:16:37 70° SE 07:19:52 10° ENE daylight
29 Apr - 08:50:28 10° WNW 08:53:20 27° NNW 08:56:12 10° NE daylight
29 Apr - 10:28:01 10° NW 10:30:32 20° N 10:33:04 10° NE daylight
29 Apr - 12:04:29 10° NW 12:07:37 41° NNE 12:10:45 10° E daylight
29 Apr - 13:41:05 10° WNW 13:44:02 31° SW 13:46:58 10° SSE daylight
30 Apr - 06:21:18 10° SSW 06:24:21 37° SE 06:27:25 10° ENE daylight
30 Apr - 07:57:46 10° W 08:00:51 36° NNW 08:03:55 10° NE daylight
30 Apr - 09:35:28 10° NW 09:37:58 20° N 09:40:27 10° NE daylight
30 Apr - 11:12:13 10° NW 11:15:09 29° NNE 11:18:05 10° E daylight
30 Apr - 12:48:33 10° WNW 12:51:47 58° SW 12:55:01 10° SE daylight
01 May - 05:29:39 10° S 05:32:10 21° SE 05:34:42 10° E visible
01 May - 07:05:11 10° WSW 07:08:24 55° NNW 07:11:38 10° NE daylight
01 May - 08:42:47 10° WNW 08:45:22 21° N 08:47:59 10° NE daylight
01 May - 10:19:53 10° NW 10:22:37 23° NNE 10:25:20 10° ENE daylight
01 May - 11:56:10 10° NW 11:59:27 78° NNE 12:02:44 10° ESE daylight
01 May - 13:33:43 10° W 13:35:33 14° SW 13:37:22 10° SSW daylight
